Terug naar catalogus

CZ-3C DEB

LostGTO
NORAD 40869·DEBRIS·🇨🇳 China

Gelanceerd Feb 24, 2012 vanaf Xichang Satellite Launch Center

Loading…

TLE

VerouderdSource: Space-Track

Epoch: Mar 25, 2025, 02:59 UTC

1 40869U 12008AK  25084.12490443  .00001585  00000-0  63035-1 0  9991
2 40869  18.4629 332.1867 7262175  75.3844 348.9966  2.08076827 89912

Volg CZ-3C DEB in realtime met AllMySat

Download on the App Store